Location: Boleita
(10.4833°N, 66.8167°W)
Time: 02:43:04
(UTC+00:00)

Meteor 1-28 Rocket - Pass Details

Date: 08 November 2025
Orbit: 433 x 442 km, 97.6° (Epoch: 09 December)

Event Time Altitude Azimuth Distance (km) Brightness Sun altitude
Rises 08:51:27 0° 175° (S) 2,398 6.8 -21.9°
Reaches altitude 10° 08:53:28 10° 178° (S) 1,530 5.8 -21.4°
Enters shadow 08:55:25 32° 192° (SSW) 766 4.0 -20.9°
